Location: Recife
(8.0585°S, 34.8848°W)
Time: 07:08:42
(UTC-03:00)

Vanguard 1 Rocket - Pass Details

Date: 16 April 2026
Orbit: 655 x 4212 km, 34.3° (Epoch: 13 May)

Event Time Altitude Azimuth Distance (km) Brightness Sun altitude
Rises 12:51:47 0° 209° (SSW) 3,818 10.6 60.6°
Reaches altitude 10° 12:55:55 10° 183° (S) 3,362 10.2 59.8°
Maximum altitude 13:00:09 14° 153° (SSE) 3,583 10.3 58.9°
Drops below altitude 10° 13:05:40 10° 125° (SE) 4,600 10.8 57.8°
Sets 13:13:39 0° 103° (ESE) 6,542 11.5 56.1°
